Location: Unspecified
(42.3650°N, 71.1030°W)
Time: 16:38:27
(UTC+00:00)

S-56A Canister/Altair - Pass Details

Date: 25 June 2024
Orbit: 638 x 2487 km, 38.9° (Epoch: 20 July)

Event Time Altitude Azimuth Distance (km) Brightness Sun altitude
Rises 06:14:05 0° 283° (WNW) 5,164 11.7 -21.3°
Reaches altitude 10° 06:17:18 10° 278° (W) 4,387 11.2 -21.0°
Maximum altitude 06:29:03 47° 210° (SSW) 2,916 9.9 -20.2°
Drops below altitude 10° 06:42:58 10° 144° (SE) 5,128 11.5 -19.0°
Sets 06:47:07 0° 138° (SE) 6,078 11.9 -18.7°
